Regional Weather Roundup
Issued by NWS

Home | Current Version | Previous Version | Text Only | Print | Product List | Glossary On
Versions: 1 2 3 4 5 6 7 8 9 10 11 12 13 14 15 16 17 18 19 20 21 22 23 24 25 26 27 28 29 30 31 32 33 34 35 36 37 38 39 40 41 42 43 44 45 46 47 48 49 50
000
ASUS43 KMPX 010110
RWRMN
WEATHER ROUNDUP FOR MINNESOTA
NATIONAL WEATHER SERVICE TWIN CITIES/CHANHASSEN MN
700 PM CST SAT JAN 31 2015


NOTE: "FAIR" INDICATES FEW OR NO CLOUDS BELOW 12,000 FEET WITH NO
SIGNIFICANT WEATHER AND/OR OBSTRUCTIONS TO VISIBILITY. N/A MEANS
CURRENT SKY AND/OR WEATHER CONDITIONS ARE NOT AVAILABLE.

MNZ060>063-068>070-010200-
   Twin Cities Metro

CITY           SKY/WX    TMP DP  RH WIND       PRES   REMARKS
TWIN CITIES    CLOUDY    27  15  61 NE13      30.19S WCI  16
ST PAUL        CLOUDY    26  15  63 NE13      30.22R WCI  15
CRYSTAL        CLOUDY    28  13  53 NE8       30.19S WCI  20
BLAINE         MOCLDY    28  16  59 NE8       30.20S WCI  20
LAKEVILLE      CLOUDY    25  18  74 NE8       30.17S WCI  16
EDEN PRAIRIE   CLOUDY    27  16  63 NE8       30.17F WCI  19
SOUTH ST PAUL  CLOUDY    27  17  63 NE7       30.19S WCI  20
LAKE ELMO      MOCLDY    27  18  69 NE13      30.20F WCI  16
$$
MNZ001>005-007-008-013>017-022>024-027-028-010200-
   Northwest Minnesota

CITY           SKY/WX    TMP DP  RH WIND       PRES   REMARKS
BEMIDJI        MOCLDY     1  -6  71 N12       30.34S WCI -15
HALLOCK        MOCLDY    -8 -17  65 N14       30.53R WCI -28
ROSEAU         MOCLDY    -4 -13  65 N8        30.48R WCI -19
WARROAD        MOCLDY    -4 -13  65 N10       30.47R WCI -21
THIEF RVR FALL MOCLDY     0  -9  65 N12       30.43R WCI -18
CROOKSTON      PTCLDY     0  -9  65 N16       30.47R WCI -21
FOSSTON        MOCLDY     1  -6  71 N13       30.37S WCI -16
DETROIT LAKES  CLOUDY    10  -4  52 NE14G21   30.30S WCI  -5
MOORHEAD       CLOUDY     7  -4  61 N18G25    30.37S WCI -12
PARK RAPIDS    MOCLDY     7  -3  64 N9        30.29S WCI  -7
MAHNOMEN       FAIR       6  -5  59 NE13      30.34S WCI -10
$$
MNZ006-009>011-018-025>026-010200-
   North Central Minnesota

CITY           SKY/WX    TMP DP  RH WIND       PRES   REMARKS
BAUDETTE       MOCLDY    -6 -14  68 N8        30.43R WCI -21
FLAG ISLAND    MOCLDY    -8 -15  71 N9        30.48R WCI -25
INTL FALLS     PTCLDY    -4 -15  59 NE6       30.41R WCI -16
WASKISH        MOCLDY    -4  -9  77 N6        30.41R WCI -16
BIG FORK       PTCLDY     3  -8  60 N8        30.37R WCI -10
LONGVILLE      MOCLDY    10  -2  56 N5        30.30S WCI   2
GRAND RAPIDS   MOCLDY     9  -8  47 N6        30.30S WCI  -1
CRANE LAKE     MOCLDY    -8 -15  71 CALM      30.43R
ORR            PTCLDY    -2 -11  65 CALM      30.35R
COOK           PTCLDY     1  -8  66 CALM      30.37R
WALKER         FAIR       5  -4  65 N6        30.32S WCI  -6
$$
MNZ012-019>021-037-010200-
   Northeast Minnesota

CITY           SKY/WX    TMP DP  RH WIND       PRES   REMARKS
DULUTH         MOCLDY    11  -4  51 N10       30.27R WCI  -3
ELY            PTCLDY     0  -9  65 CALM      30.35R
HIBBING        PTCLDY     7  -7  52 N9        30.32R WCI  -7
EVELETH        MOCLDY     5  -6  61 N7        30.34S WCI  -7
DULUTH HARBOR  CLOUDY    18   7  62 NE22      30.35R WCI   0
TWO HARBORS    MOCLDY    12   0  57 NE6       30.31R WCI   3
SILVER BAY     MOCLDY     9  -6  52 N3        30.33R
GRAND MARAIS     N/A      3  -8  60 CALM      30.41R
G MARAIS ARPRT PTCLDY    -2 -13  60 N6        30.29R WCI -14
$$
MNZ029>031-032-039>041-046>048-054>057-064-010200-
   West Central Minnesota

CITY           SKY/WX    TMP DP  RH WIND       PRES   REMARKS
FERGUS FALLS   CLOUDY    12   0  57 N12       30.30S WCI  -2
WHEATON        CLOUDY    12   1  62 N16G24    30.28R WCI  -4
MORRIS         CLOUDY    21   3  45 NE14G21   30.20S WCI   8
ALEXANDRIA     CLOUDY    18   0  45 NE16      30.21R WCI   3
ELBOW LAKE     FAIR      17   1  48 N15       30.23S WCI   2
WADENA         MOCLDY    10   0  61 NE13G21   30.26S WCI  -5
GLENWOOD       CLOUDY    19   7  58 NE15G22   30.20R WCI   5
APPLETON       CLOUDY    27  10  50 NE15      30.19R WCI  15
BENSON         CLOUDY    25   7  46 E10       30.19S WCI  15
ORTONVILLE     CLOUDY    18   7  62 N21       30.21R WCI   1
MADISON        CLOUDY    28  18  64 NE12      30.18R WCI  18
WILLMAR        FAIR      27   9  46 NE12G18   30.18R WCI  16
$$
MNZ033>034-036-042>043-049>051-058-059-010200-
   Central Minnesota

CITY           SKY/WX    TMP DP  RH WIND       PRES   REMARKS
ST CLOUD       CLOUDY    24   7  48 NE10      30.20F WCI  14
SAUK CENTRE    CLOUDY    21   6  53 N12G20    30.21S WCI   9
PAYNESVILLE    CLOUDY    21   7  53 N10       30.19S WCI  10
AITKIN         MOCLDY    18   0  45 N8        30.27S WCI   7
PINE RIVER     MOCLDY    10   1  67 N10       30.32S WCI  -3
BRAINERD       PTCLDY    16   2  54 NE12      30.26S WCI   3
STAPLES        MOCLDY    12   0  57 N7G22     30.26S WCI   2
LONG PRAIRIE   CLOUDY    18   5  57 N13G20    30.22R WCI   4
LITTLE FALLS   CLOUDY    21   3  45 NE3       30.23F
LITCHFIELD     CLOUDY    27  16  63 NE9       30.18S WCI  17
BUFFALO        CLOUDY    26  11  51 N12G17    30.20S WCI  16
MAPLE LAKE     CLOUDY    27  12  54 NE12      30.20S WCI  16
$$
MNZ037-044-045-052-053-010200-
   East Central Minnesota

CITY           SKY/WX    TMP DP  RH WIND       PRES   REMARKS
PRINCETON      CLOUDY    27   7  43 NE14      30.21S WCI  15
MORA           CLOUDY    21   3  45 NE7       30.26R WCI  13
CAMBRIDGE      CLOUDY    27  10  50 NE6       30.21R WCI  20
RUSH CITY      CLOUDY    23   7  51 NE13G18   30.24R WCI  11
MOOSE LAKE     MOCLDY    18   0  45 NE12G17   30.26S WCI   5
HINCKLEY       FAIR      21   5  49 NE10      30.25S WCI  10
CLOQUET        MOCLDY    12  -2  52 N7        30.28S WCI   2
MCGREGOR       MOCLDY    14   1  57 N9        30.29S WCI   2
$$
MNZ071>073-080-081-089-090-097-098-010200-
   Southwest Minnesota

CITY           SKY/WX    TMP DP  RH WIND       PRES   REMARKS
MONTEVIDEO     CLOUDY    25  18  74 E8        30.18R WCI  16
GRANITE FALLS  CLOUDY    25  20  80 NE7       30.18R WCI  17
CANBY          CLOUDY    22  18  82 N6        30.17S WCI  15
MARSHALL       CLOUDY    25  18  74 NE10      30.16R WCI  15
REDWOOD FALLS  CLOUDY    26  20  77 NE7       30.16R WCI  18
OLIVIA         CLOUDY    25  21  86 NE3       30.16R
PIPESTONE      LGT SNOW  25  23  93 E9        30.06S WCI  15
WINDOM         LGT SNOW  27  25  93 NE13      30.09S WCI  16
WORTHINGTON    CLOUDY    27  25  93 NE16      30.07R WCI  14
JACKSON        LGT SNOW  28  27  93 NE16      30.07S WCI  17
TRACY          CLOUDY    26  23  90 NE12      30.12S WCI  15
SLAYTON        CLOUDY    24  23  97 NE9       30.09S FOG     WCI  14
$$
MNZ065>067-074>077-082>085-091>093-010200-
   South Central Minnesota

CITY           SKY/WX    TMP DP  RH WIND       PRES   REMARKS
MANKATO        CLOUDY    27  19  74 NE16      30.14R WCI  14
NEW ULM        CLOUDY    27  19  74 NE14      30.15R WCI  15
FAIRMONT       CLOUDY    27  25  93 NE16      30.08S WCI  14
GLENCOE        CLOUDY    26  21  80 NE5       30.16S WCI  21
FARIBAULT      CLOUDY    27  19  74 NE13      30.16R WCI  16
OWATONNA       CLOUDY    27  21  80 NE10      30.13S WCI  17
WASECA         CLOUDY    28  23  80 NE12G17   30.14R WCI  18
ALBERT LEA     LGT SNOW  28  27  93 NE13      30.10S VSB 3/4 WCI  18
$$
MNZ078>079-086>088-094>096-010200-
   Southeast Minnesota

CITY           SKY/WX    TMP DP  RH WIND       PRES   REMARKS
ROCHESTER      CLOUDY    26  21  81 NE14      30.12S WCI  14
RED WING       CLOUDY    28  18  64 NE6       30.18S WCI  22
STANTON        CLOUDY    28  20  74 NE8       30.15F WCI  19
DODGE CENTER   CLOUDY    27  23  86 NE10      30.12S WCI  17
WINONA         CLOUDY    30  21  69 NE8       30.18S WCI  23
AUSTIN         LGT SNOW  27  25  93 NE13      30.10S WCI  16
PRESTON        LGT SNOW  26  22  84 NE8       30.12S WCI  18
$$
ABBREVIATIONS USED IN REMARKS
   TC - TEMPERATURES IN CELSIUS
  WCI - WIND CHILL INDEX
   HX - HEAT INDEX
  VSB - VISIBILITY
$$


USA.gov is the U.S. government's official web portal to all federal, state and local government web resources and services.